カタログに戻る

STARLINK-3203

運用中通信VLEO
NORAD 49761·PAYLOAD·🇺🇸 United States

打ち上げ Dec 2, 2021 から Cape Canaveral Space Force Station

Loading…

次のパス (今後24時間)

TLE

最新Source: CelesTrak SupGP

元期: Sep 14, 2026, 21:16 UTC

1 49761C 21115AP  26257.88659722 -.00029805  00000+0 -88060-3 0  2573
2 49761  53.1589 355.6277 0001284  76.6755 104.9826 15.34405848    19

AllMySatでSTARLINK-3203をリアルタイム追跡

Download on the App Store